Location: Ehingen
(48.2869°N, 9.7112°E)
Time: 20:08:32
(UTC+01:00)

Tiangong 2 - Visible Passes

Search period start: 21 November 2017 00:00
Search period end: 01 December 2017 00:00
Orbit: 386 x 392 km, 42.8° (Epoch: 21 November)

Date Brightness Start Highest point End Pass type
(mag) Time Alt. Az. Time Alt. Az. Time Alt. Az.
27 Nov 4.0 06:50:05 10° SSW 06:52:06 16° SSE 06:54:06 10° ESE visible
28 Nov 4.2 05:53:12 10° S 05:54:08 11° SSE 05:55:03 10° SE visible
29 Nov 3.4 06:29:44 10° SW 06:32:14 21° SSE 06:34:44 10° ESE visible
30 Nov 3.6 05:33:28 15° S 05:34:12 16° SSE 05:36:16 10° ESE visible
30 Nov 2.9 07:07:39 10° WSW 07:10:29 29° S 07:13:20 10° ESE visible
